Location: Oakhurst
(33.6448°N, 111.9543°W)
Time: 22:21:42
(UTC+00:00)

Max Valier Satellite - Pass Details

Date: 02 August 2021
Orbit: 486 x 501 km, 97.2° (Epoch: 15 September)

Event Time Altitude Azimuth Distance (km) Brightness Sun altitude
Exits shadow 03:32:43 19° 148° (SSE) 1,224 ? -12.9°
Maximum altitude 03:35:07 53° 76° (ENE) 603 ? -13.3°
Drops below altitude 10° 03:38:39 10° 359° (N) 1,680 ? -14.0°
Sets 03:40:45 0° 355° (N) 2,568 ? -14.3°
